Home   Weather   Incheon   Past weeks

Flag for South Korea Past Weather in Incheon, South Korea — Yesterday and Last 2 Weeks

Now
64 °F

Broken clouds.


Feels Like: 64 °F
Forecast: 62 / 72 °F
Wind: 14 mph from Northeast

Location: Incheon International Airport

Current Time: Sep 29, 2016 at 9:09:58 AM

Latest Report: Sep 29, 2016 at 8:30 AM


Visibility: N/A

Pressure: 30.01 "Hg

Humidity: 68%

Dew Point: 54 °F

Location of IncheonLocation

Past Weather in Incheon — Graph

°F

Incheon Temperature Yesterday

Maximum temperature yesterday: 70 °F (at 11:30 AM)
Minimum temperature yesterday: 66 °F (at 2:30 AM)
Average temperature yesterday: 68 °F

High & Low Weather Summary for the Past Weeks

 TemperatureHumidityPressure
High84 °F (Sep 17, 2:30 PM)88% (Sep 24, 5:30 AM)30.21 "Hg (Sep 24, 5:30 AM)
Low57 °F (Sep 21, 5:30 AM)24% (Sep 20, 1:30 PM)29.80 "Hg (Sep 17, 3:30 PM)
Average72 °F62%30.00 "Hg
* Reported Sep 14 8:00 AM — Sep 29 8:00 AM, Incheon, Weather by CustomWeather, © 2016

Note: Actual official high and low records may vary slightly from our data, if they occured in-between our weather recording intervals... More about our weather records

Advertising

Incheon Weather History for the Previous 24 Hours

Scroll right to see more
 ConditionsComfort  
Time TempWeatherWind HumidityBarometerVisibility
8:00 AM
Thu, Sep 29
64 °FBroken clouds.14 mph73%30.01 "HgN/A
7:30 AM64 °FBroken clouds.15 mph73%30.01 "HgN/A
7:00 AM64 °FPartly cloudy.15 mph73%29.98 "HgN/A
6:30 AM64 °FPartly cloudy.13 mph73%29.98 "HgN/A
6:00 AM64 °FPartly cloudy.13 mph73%29.98 "HgN/A
5:30 AM64 °FPartly cloudy.14 mph73%29.98 "HgN/A
5:00 AM64 °FPartly cloudy.14 mph73%29.98 "HgN/A
4:30 AM64 °FPartly cloudy.13 mph73%29.95 "HgN/A
4:00 AM64 °FPartly cloudy.14 mph73%29.95 "HgN/A
3:30 AM64 °FPartly cloudy.12 mph73%29.95 "HgN/A
3:00 AM64 °FPartly cloudy.13 mph73%29.95 "HgN/A
2:30 AM66 °FPartly cloudy.10 mph68%29.95 "HgN/A
2:00 AM64 °FPartly cloudy.12 mph73%29.95 "HgN/A
1:30 AM64 °FPartly cloudy.10 mph73%29.98 "HgN/A
1:00 AM66 °FPartly cloudy.10 mph73%29.95 "HgN/A
12:30 AM64 °FPassing clouds.12 mph78%29.98 "HgN/A
12:00 AM66 °FPassing clouds.9 mph73%29.95 "HgN/A
11:30 PM
Wed, Sep 28
66 °FPassing clouds.10 mph73%29.98 "HgN/A
11:00 PM66 °FPassing clouds.9 mph78%29.95 "HgN/A
10:30 PM66 °FPassing clouds.7 mph78%29.98 "HgN/A
10:00 PM66 °FClear.2 mph78%29.95 "Hg10 mi
9:30 PM66 °FPassing clouds.3 mph78%29.98 "HgN/A
9:00 PM66 °FPartly cloudy.6 mph78%29.98 "HgN/A
8:30 PM68 °FClear.8 mph73%29.98 "Hg10 mi
8:00 PM68 °FClear.3 mph78%29.95 "Hg10 mi
7:30 PM68 °FPassing clouds.3 mph73%29.95 "HgN/A
7:00 PM68 °FPartly sunny.5 mph78%29.95 "HgN/A
6:30 PM68 °FOvercast.8 mph78%29.95 "HgN/A
6:00 PM68 °FMore clouds than sun.9 mph78%29.95 "HgN/A
5:30 PM70 °FMostly cloudy.7 mph73%29.95 "HgN/A
5:00 PM70 °FMostly cloudy.9 mph73%29.95 "HgN/A
4:30 PM70 °FMostly cloudy.8 mph73%29.92 "HgN/A
4:00 PM70 °FMostly cloudy.8 mph73%29.95 "Hg5 mi
3:30 PM70 °FMostly cloudy.2 mph78%29.95 "Hg5 mi
3:00 PM70 °FMostly cloudy.3 mph73%29.95 "Hg5 mi
2:30 PM70 °FMostly cloudy.5 mph73%29.95 "Hg6 mi
2:00 PM70 °FMostly cloudy.6 mph73%29.95 "Hg6 mi
1:30 PM70 °FMostly cloudy.5 mph73%29.98 "Hg6 mi
1:00 PM70 °FMostly cloudy.6 mph78%29.98 "Hg6 mi
12:30 PM70 °FMostly cloudy.6 mph73%29.98 "Hg5 mi
12:00 PM70 °FMostly cloudy.6 mph73%29.98 "Hg5 mi
11:30 AM70 °FMostly cloudy.5 mph73%29.98 "Hg5 mi
11:00 AM68 °FMostly cloudy.6 mph78%30.01 "Hg5 mi
10:30 AM68 °FMostly cloudy.6 mph83%30.01 "Hg4 mi
10:00 AM68 °FMostly cloudy.7 mph83%30.01 "Hg4 mi
9:30 AM68 °FFog.6 mph83%30.01 "Hg3 mi
9:00 AM68 °FFog.5 mph83%30.01 "Hg3 mi
Weather by CustomWeather, © 2016

See weather overviewHow to use our weather pages